TimeCDT,TemperatureF,Dew PointF,Humidity,Sea Level PressureIn,VisibilityMPH,Wind Direction,Wind SpeedMPH,Gust SpeedMPH,PrecipitationIn,Events,Conditions,WindDirDegrees,DateUTC
12:53 AM,34.0,30.9,89,30.13,10.0,Calm,Calm,-,N/A,,Clear,0,2013-10-19 05:53:00
1:53 AM,34.0,30.9,89,30.12,10.0,SSW,8.1,-,N/A,,Clear,200,2013-10-19 06:53:00
2:53 AM,34.0,30.9,89,30.11,10.0,SSW,4.6,-,N/A,,Clear,200,2013-10-19 07:53:00
3:53 AM,34.0,30.9,89,30.10,10.0,Calm,Calm,-,N/A,,Clear,0,2013-10-19 08:53:00
4:53 AM,33.1,30.0,89,30.09,10.0,SSW,4.6,-,N/A,,Clear,210,2013-10-19 09:53:00
5:53 AM,35.1,30.0,82,30.09,10.0,Calm,Calm,-,N/A,,Clear,0,2013-10-19 10:53:00
6:53 AM,34.0,30.0,85,30.09,10.0,WSW,3.5,-,N/A,,Clear,240,2013-10-19 11:53:00
7:53 AM,30.9,28.0,89,30.09,10.0,SSW,4.6,-,N/A,,Clear,200,2013-10-19 12:53:00
8:53 AM,35.1,30.9,85,30.08,10.0,SSW,6.9,-,0.01,,Clear,210,2013-10-19 13:53:00
9:53 AM,42.1,34.0,73,30.08,10.0,WSW,9.2,-,N/A,,Clear,250,2013-10-19 14:53:00
10:53 AM,48.0,36.0,63,30.07,10.0,West,10.4,-,N/A,,Clear,270,2013-10-19 15:53:00
11:53 AM,54.0,37.9,55,30.04,10.0,WSW,12.7,-,N/A,,Clear,240,2013-10-19 16:53:00
12:53 PM,60.1,37.0,42,30.00,10.0,SW,18.4,-,N/A,,Clear,230,2013-10-19 17:53:00
1:53 PM,62.1,37.0,39,29.98,10.0,WSW,12.7,-,N/A,,Clear,250,2013-10-19 18:53:00
2:53 PM,66.0,36.0,33,29.95,10.0,WSW,15.0,18.4,N/A,,Clear,240,2013-10-19 19:53:00
3:53 PM,66.9,34.0,30,29.93,10.0,West,15.0,24.2,N/A,,Clear,260,2013-10-19 20:53:00
4:53 PM,68.0,34.0,28,29.91,10.0,WSW,13.8,-,N/A,,Clear,240,2013-10-19 21:53:00
5:53 PM,66.0,37.0,34,29.91,10.0,WSW,8.1,-,N/A,,Clear,250,2013-10-19 22:53:00
6:53 PM,55.9,41.0,57,29.91,10.0,SSW,6.9,-,N/A,,Clear,200,2013-10-19 23:53:00
7:53 PM,51.1,41.0,68,29.91,10.0,SSW,8.1,-,N/A,,Clear,200,2013-10-20 00:53:00
8:53 PM,48.0,39.9,74,29.91,10.0,SSW,8.1,-,N/A,,Clear,200,2013-10-20 01:53:00
9:53 PM,45.0,39.0,80,29.91,10.0,North,-9999.0,-,N/A,,Clear,0,2013-10-20 02:53:00
10:53 PM,43.0,37.9,82,29.91,10.0,South,8.1,-,N/A,,Clear,190,2013-10-20 03:53:00
11:53 PM,43.0,37.9,82,29.89,10.0,South,8.1,-,N/A,,Clear,190,2013-10-20 04:53:00